[[{"header":{"parameterUnit":"m.s-1","parameterCategory":1,"la1":30.2991,"la2":30.254,"lo1":-89.0895,"lo2":-89.0444,"dy":0.0017,"dx":0.0017,"nx":28,"ny":28,"refTime":"2023-03-13T21:00:00:Z","depth":0,"parameterNumber":2,"parameterNumberName":"U-component_of_WINDS"},"data":[0,0,0,0,0,0,0,0,0,0,0,0,0,0,0,0,0,0,0,0,0,0,0,0,0,0,0,0,0,0,0,0,0,0,0,0,0,0,0,0,0,0,0,0,0,0,0,0,0,0,0,0,0,0,0,0,0,0,-3.1721,-3.1721,0,-3.1666,-3.1665,-3.1664,-3.1533,-3.153,-3.1528,-3.1525,-3.1472,-3.1473,-3.1475,0,0,0,0,0,0,0,0,0,0,0,0,0,-3.1719,-3.172,-3.1721,-3.1721,-3.172,-3.1666,-3.1665,-3.1664,-3.1534,-3.153,-3.1527,-3.1524,-3.1472,-3.1473,-3.1475,0,0,0,0,0,0,0,0,0,0,0,0,0,-3.1698,-3.172,-3.1721,-3.1648,-3.1641,-3.1666,-3.1665,-3.1664,-3.1534,-3.153,-3.1526,-3.1522,-3.1471,-3.1473,-3.1475,-3.1568,0,0,-3.148,-3.1481,0,0,0,0,0,0,0,0,-3.1699,-3.1698,-3.166,-3.1653,-3.1645,-3.1602,-3.1645,-3.1632,-3.1535,-3.1575,-3.1525,-3.152,-3.1519,-3.1517,-3.1515,-3.1565,-3.1563,-3.148,-3.1481,-3.1482,-3.1483,0,0,0,0,0,0,0,-3.1701,-3.17,-3.1699,-3.1659,-3.165,-3.162,-3.1612,-3.1642,-3.1571,-3.1571,-3.1561,-3.1556,-3.1514,-3.1514,-3.1513,-3.1562,-3.148,-3.1482,-3.1483,-3.1484,-3.1688,-3.1692,0,0,0,0,0,0,-3.1712,-3.1702,-3.1701,-3.1698,-3.1662,-3.1623,-3.1614,-3.162,-3.157,-3.1558,-3.156,-3.1551,-3.1513,-3.1511,-3.1511,-3.1617,-3.1482,-3.1484,-3.1485,-3.1683,-3.1688,-3.1693,0,0,0,0,0,0,-3.1713,-3.1713,-3.1703,-3.1697,-3.1693,-3.1627,-3.1635,-3.1621,-3.162,-3.1562,-3.1549,-3.1572,-3.151,-3.1508,-3.1555,-3.1614,-3.1484,-3.1486,-3.1678,-3.1685,-3.1691,-3.1831,0,0,0,0,0,0,-3.1713,-3.1714,-3.1748,-3.1699,-3.1694,-3.1747,-3.1638,-3.1623,-3.1623,-3.161,-3.157,-3.1559,-3.1506,-3.1553,-3.1556,-3.1614,-3.1487,-3.1672,-3.1681,-3.1689,-3.1821,-3.1842,-3.1859,0,0,0,0,0,-3.1714,-3.179,-3.175,-3.1751,-3.1734,-3.1751,-3.1748,-3.1685,-3.1629,-3.1663,-3.1625,-3.156,-3.1607,-3.1559,-3.1562,-3.162,-3.1668,-3.1679,-3.1688,-3.1812,-3.1838,-3.1859,0,0,0,0,0,0,-3.1849,-3.1782,-3.1737,-3.18,-3.1782,-3.1729,-3.1769,-3.1713,-3.1712,-3.17,-3.1623,-3.1615,-3.1672,-3.165,-3.1598,-3.1709,-3.1627,-3.1638,-3.1721,-3.1744,-3.1763,-3.1768,-3.1489,0,0,0,0,0,-3.1886,-3.1903,-3.1845,-3.1906,-3.1899,-3.1836,-3.1841,-3.1793,-3.1772,-3.1764,-3.173,-3.1713,-3.1724,-3.1733,-3.1739,-3.1817,-3.1807,-3.1859,-3.1878,-3.1894,-3.1905,-3.1947,-3.197,-3.1726,-3.1726,-3.1725,0,0,-3.1963,-3.1929,-3.1945,-3.1932,-3.1912,-3.1934,-3.1831,-3.1857,-3.1873,-3.1769,-3.181,-3.1785,-3.1761,-3.1824,-3.185,-3.1808,-3.197,-3.1907,-3.192,-3.1922,-3.1959,-3.1982,-3.2003,-3.1732,-3.1731,-3.173,0,0,-3.2114,-3.2089,-3.2138,-3.2121,-3.2092,-3.205,-3.2062,-3.2017,-3.1996,-3.2036,-3.1959,-3.1977,-3.1997,-3.1983,-3.1979,-3.2127,-3.2069,-3.2132,-3.2233,-3.2274,-3.2293,-3.231,-3.2364,-3.2385,-3.2142,-3.2143,-3.2143,0,-3.2214,-3.2242,-3.2171,-3.2203,-3.22,-3.2106,-3.2156,-3.2143,-3.2119,-3.212,-3.2072,-3.2096,-3.2073,-3.2133,-3.2169,-3.2168,-3.2181,-3.2136,-3.2296,-3.2312,-3.2327,-3.2378,-3.2398,-3.2151,-3.215,-3.2149,-3.2148,0,-3.2367,-3.2387,-3.243,-3.2408,-3.2411,-3.2452,-3.2389,-3.24,-3.2353,-3.2317,-3.236,-3.2329,-3.2329,-3.2339,-3.2293,-3.2393,-3.2368,-3.231,-3.2226,-3.2359,-3.2406,-3.2425,-3.2162,-3.2159,-3.2157,-3.2155,0,0,-3.2602,-3.254,-3.2557,-3.2547,-3.2509,-3.2524,-3.2562,-3.256,-3.2572,-3.2559,-3.259,-3.2609,-3.2555,-3.2551,-3.2503,-3.2539,-3.2661,-3.2476,-3.2475,-3.2513,-3.2771,-3.2816,-3.284,-3.2621,-3.2624,-3.2627,-3.2773,0,-3.2745,-3.2804,-3.2742,-3.2815,-3.2834,-3.2745,-3.2778,-3.276,-3.2727,-3.274,-3.2704,-3.272,-3.2646,-3.2643,-3.2675,-3.2639,-3.2712,-3.2628,-3.2651,-3.2653,-3.2661,-3.2863,-3.2911,-3.305,-3.2791,-3.2794,-3.2796,0,-3.292,-3.2914,-3.2989,-3.2947,-3.2953,-3.2984,-3.2978,-3.2991,-3.2969,-3.2942,-3.2938,-3.288,-3.2916,-3.2834,-3.2884,-3.2828,-3.2834,-3.2819,-3.2822,-3.2823,-3.2734,-3.2872,-3.3093,-3.3115,-3.2824,-3.2822,-3.282,0,-3.3086,-3.3097,-3.3143,-3.3137,-3.3089,-3.3113,-3.3095,-3.3068,-3.3072,-3.3067,-3.3069,-3.3069,-3.307,-3.3073,-3.3017,-3.2962,-3.3075,-3.2988,-3.3056,-3.3058,-3.3084,-3.3084,-3.3311,-3.3086,-3.3086,-3.3086,-3.3085,0,-3.3253,-3.3303,-3.3217,-3.3246,-3.33,-3.3229,-3.3284,-3.3257,-3.3234,-3.3258,-3.3181,-3.3205,-3.3129,-3.3146,-3.3103,-3.3152,-3.3152,-3.3133,-3.3122,-3.3141,-3.3144,-3.3145,-3.3135,-3.3091,-3.309,-3.3089,-3.3088,0,-3.3448,-3.3393,-3.3438,-3.3389,-3.3378,-3.342,-3.3379,-3.3404,-3.3367,-3.3397,-3.34,-3.3342,-3.3358,-3.3302,-3.3309,-3.328,-3.3353,-3.3324,-3.336,-3.3352,-3.3424,-3.3418,-3.3661,-3.369,-3.3446,-3.3448,-3.345,0,-3.3559,-3.3595,-3.355,-3.356,-3.3545,-3.3561,-3.3564,-3.3496,-3.3503,-3.3481,-3.351,-3.3519,-3.3523,-3.3552,-3.3512,-3.3517,-3.3489,-3.3574,-3.3489,-3.3508,-3.3492,-3.3491,-3.3496,-3.3592,-3.3595,-3.3597,-3.3599,0,-3.3762,-3.3733,-3.374,-3.3738,-3.3743,-3.3738,-3.3729,-3.3741,-3.3668,-3.368,-3.3694,-3.3697,-3.3704,-3.3715,-3.3711,-3.3694,-3.3636,-3.3626,-3.3642,-3.3663,-3.3683,-3.3675,-3.3409,-3.3621,-3.3619,-3.3617,-3.3616,-3.3615,-3.3919,-3.3948,-3.3921,-3.3932,-3.3917,-3.391,-3.3932,-3.3897,-3.3907,-3.3907,-3.3866,-3.3889,-3.3868,-3.3857,-3.3846,-3.3864,-3.3825,-3.3848,-3.3855,-3.3862,-3.3875,-3.3679,-3.3863,-3.3863,-3.3862,-3.3861,-3.3861,0,-3.412,-3.4099,-3.4109,-3.4097,-3.4106,-3.4049,-3.4035,-3.4047,-3.4068,-3.4052,-3.4057,-3.4075,-3.4086,-3.4046,-3.4051,-3.4074,-3.4048,-3.4078,-3.4076,-3.4074,-3.3909,-3.3895,-3.4099,-3.4099,-3.4099,-3.4099,-3.4099,-3.4099,-3.4226,-3.4271,-3.424,-3.4278,-3.4256,-3.4277,-3.4275,-3.4269,-3.4256,-3.4279,-3.4287,-3.426,-3.4236,-3.4239,-3.4247,-3.4235,-3.4241,-3.4281,-3.4261,-3.4108,-3.4085,-3.4063,-3.4049,-3.4283,-3.4283,-3.4424,-3.4426,-3.4427]},{"header":{"parameterUnit":"m.s-1","parameterCategory":1,"la1":30.2991,"la2":30.254,"lo1":-89.0895,"lo2":-89.0444,"dy":0.0017,"dx":0.0017,"nx":28,"ny":28,"refTime":"2023-03-13T21:00:00:Z","depth":0,"parameterNumber":3,"parameterNumberName":"V-component_of_WINDS"},"data":[0,0,0,0,0,0,0,0,0,0,0,0,0,0,0,0,0,0,0,0,0,0,0,0,0,0,0,0,0,0,0,0,0,0,0,0,0,0,0,0,0,0,0,0,0,0,0,0,0,0,0,0,0,0,0,0,0,0,-0.7041,-0.7042,0,-0.7115,-0.7116,-0.7117,-0.712,-0.712,-0.7119,-0.7118,-0.7195,-0.7198,-0.7201,0,0,0,0,0,0,0,0,0,0,0,0,0,-0.6902,-0.6905,-0.7041,-0.7042,-0.7043,-0.7115,-0.7116,-0.7117,-0.7121,-0.712,-0.7118,-0.7117,-0.7194,-0.7198,-0.7201,0,0,0,0,0,0,0,0,0,0,0,0,0,-0.6968,-0.6906,-0.7041,-0.7053,-0.7055,-0.7115,-0.7116,-0.7117,-0.7121,-0.7119,-0.7118,-0.7117,-0.7193,-0.7197,-0.7202,-0.7255,0,0,-0.7215,-0.7217,0,0,0,0,0,0,0,0,-0.6964,-0.6973,-0.705,-0.7052,-0.7054,-0.7107,-0.7096,-0.7163,-0.7121,-0.7096,-0.7118,-0.7116,-0.7167,-0.7174,-0.719,-0.7258,-0.7262,-0.7215,-0.7218,-0.722,-0.7221,0,0,0,0,0,0,0,-0.696,-0.697,-0.707,-0.7051,-0.7054,-0.7055,-0.7063,-0.7108,-0.7138,-0.7098,-0.7098,-0.7107,-0.7168,-0.7186,-0.7192,-0.7263,-0.7215,-0.7219,-0.7222,-0.7223,-0.7378,-0.7379,0,0,0,0,0,0,-0.6953,-0.6966,-0.7068,-0.7072,-0.7005,-0.7059,-0.7067,-0.7092,-0.7137,-0.7143,-0.7108,-0.7107,-0.7179,-0.7187,-0.7195,-0.7261,-0.722,-0.7224,-0.7226,-0.7376,-0.7378,-0.738,0,0,0,0,0,0,-0.695,-0.6962,-0.7065,-0.7019,-0.7033,-0.7062,-0.7089,-0.7094,-0.7112,-0.7145,-0.715,-0.7121,-0.7179,-0.7189,-0.724,-0.7263,-0.7226,-0.723,-0.7374,-0.7377,-0.7379,-0.7392,0,0,0,0,0,0,-0.6946,-0.6961,-0.6981,-0.702,-0.7035,-0.7108,-0.7091,-0.7096,-0.7119,-0.7118,-0.7159,-0.7164,-0.7179,-0.7233,-0.7244,-0.7269,-0.7233,-0.7373,-0.7376,-0.7378,-0.739,-0.7394,-0.7399,0,0,0,0,0,-0.6941,-0.6982,-0.6982,-0.6994,-0.7061,-0.711,-0.7118,-0.7134,-0.7121,-0.7142,-0.7163,-0.7163,-0.7258,-0.7238,-0.7251,-0.7277,-0.7371,-0.7375,-0.7378,-0.7388,-0.7394,-0.7398,0,0,0,0,0,0,-0.6946,-0.6987,-0.6988,-0.7043,-0.7073,-0.711,-0.7137,-0.7139,-0.7173,-0.7171,-0.7189,-0.7198,-0.7248,-0.7267,-0.7244,-0.733,-0.7313,-0.7319,-0.7317,-0.7323,-0.7327,-0.7322,-0.7237,0,0,0,0,0,-0.6953,-0.6989,-0.7023,-0.7069,-0.7083,-0.7107,-0.7129,-0.7138,-0.717,-0.7183,-0.7207,-0.7239,-0.7275,-0.73,-0.7335,-0.7391,-0.7401,-0.7415,-0.742,-0.7423,-0.7429,-0.7461,-0.7468,-0.7391,-0.7391,-0.7391,0,0,-0.6969,-0.6996,-0.7018,-0.707,-0.7094,-0.7131,-0.7118,-0.7158,-0.7186,-0.7189,-0.7239,-0.7258,-0.7293,-0.7347,-0.7372,-0.7365,-0.7452,-0.7428,-0.743,-0.7434,-0.7465,-0.7472,-0.7479,-0.7393,-0.7393,-0.7392,0,0,-0.7018,-0.7041,-0.7082,-0.7106,-0.7142,-0.7158,-0.7168,-0.7205,-0.7217,-0.7267,-0.727,-0.7303,-0.7366,-0.7392,-0.7413,-0.747,-0.7471,-0.7481,-0.7505,-0.7536,-0.7542,-0.7547,-0.7569,-0.7576,-0.7486,-0.7486,-0.7486,0,-0.7034,-0.7089,-0.7103,-0.7143,-0.7166,-0.7169,-0.721,-0.7233,-0.7279,-0.7295,-0.7286,-0.7365,-0.7389,-0.7449,-0.7463,-0.7479,-0.7492,-0.7477,-0.7539,-0.7545,-0.7551,-0.7571,-0.7579,-0.7487,-0.7487,-0.7487,-0.7486,0,-0.7107,-0.7146,-0.7174,-0.7218,-0.7244,-0.7285,-0.7304,-0.7329,-0.7335,-0.7351,-0.7402,-0.7431,-0.7473,-0.7487,-0.7493,-0.7548,-0.7542,-0.7536,-0.752,-0.7559,-0.7579,-0.7586,-0.7488,-0.7488,-0.7488,-0.7487,0,0,-0.7164,-0.7214,-0.7224,-0.7244,-0.7284,-0.7314,-0.7354,-0.7394,-0.7416,-0.7447,-0.7481,-0.7534,-0.7528,-0.7552,-0.7561,-0.7587,-0.7632,-0.7578,-0.7579,-0.7588,-0.7695,-0.7701,-0.771,-0.7632,-0.7633,-0.7635,-0.7692,0,-0.7218,-0.729,-0.7302,-0.7365,-0.7401,-0.7404,-0.7439,-0.7467,-0.7483,-0.7516,-0.7533,-0.7571,-0.756,-0.7574,-0.76,-0.7621,-0.7654,-0.7616,-0.7666,-0.7667,-0.7659,-0.772,-0.7727,-0.778,-0.77,-0.7701,-0.7702,0,-0.7292,-0.7324,-0.7391,-0.7425,-0.7441,-0.7472,-0.751,-0.7541,-0.7572,-0.7582,-0.7608,-0.7614,-0.7656,-0.7636,-0.7694,-0.7669,-0.7689,-0.7702,-0.7704,-0.7711,-0.7689,-0.773,-0.7797,-0.7806,-0.7714,-0.7713,-0.7712,0,-0.7328,-0.7388,-0.7436,-0.7453,-0.7494,-0.7516,-0.7534,-0.7564,-0.7588,-0.762,-0.7636,-0.7673,-0.7694,-0.7722,-0.7738,-0.7722,-0.7796,-0.7777,-0.7806,-0.7806,-0.7824,-0.7823,-0.7897,-0.7833,-0.7833,-0.7833,-0.7833,0,-0.7389,-0.743,-0.7453,-0.7483,-0.7528,-0.7542,-0.7587,-0.7604,-0.7631,-0.7664,-0.7668,-0.7699,-0.7716,-0.775,-0.7762,-0.7809,-0.7818,-0.7828,-0.7831,-0.7829,-0.7828,-0.7844,-0.7842,-0.7835,-0.7835,-0.7834,-0.7834,0,-0.7438,-0.7455,-0.7508,-0.7542,-0.7551,-0.7583,-0.7613,-0.7641,-0.7656,-0.7698,-0.7709,-0.7733,-0.7772,-0.779,-0.7839,-0.7847,-0.7901,-0.7901,-0.7891,-0.7893,-0.7922,-0.7919,-0.801,-0.8023,-0.7949,-0.795,-0.7951,0,-0.7477,-0.7508,-0.7545,-0.7568,-0.7586,-0.7622,-0.7646,-0.7659,-0.7684,-0.7722,-0.7746,-0.7785,-0.7818,-0.7881,-0.7904,-0.7941,-0.7943,-0.7972,-0.7948,-0.7945,-0.7945,-0.7944,-0.7947,-0.7977,-0.7978,-0.7978,-0.7979,0,-0.7544,-0.7551,-0.7584,-0.7621,-0.7649,-0.7679,-0.7708,-0.7725,-0.7744,-0.7771,-0.7811,-0.7836,-0.7886,-0.7926,-0.7964,-0.7983,-0.7985,-0.7985,-0.7994,-0.7994,-0.7987,-0.7993,-0.7905,-0.7984,-0.7983,-0.7983,-0.7983,-0.7982,-0.7591,-0.7619,-0.7649,-0.7687,-0.7709,-0.7736,-0.7765,-0.7783,-0.7817,-0.7858,-0.7864,-0.7907,-0.7938,-0.7989,-0.8009,-0.8044,-0.8037,-0.805,-0.8053,-0.8057,-0.8059,-0.798,-0.805,-0.805,-0.805,-0.805,-0.805,0,-0.7659,-0.7679,-0.7713,-0.7753,-0.7782,-0.7779,-0.7811,-0.7836,-0.7874,-0.7902,-0.7933,-0.798,-0.8018,-0.8042,-0.808,-0.8103,-0.8105,-0.8113,-0.8113,-0.8117,-0.8063,-0.8052,-0.8111,-0.8111,-0.8111,-0.8111,-0.8111,-0.8111,-0.7699,-0.7747,-0.7757,-0.7816,-0.7835,-0.7877,-0.7895,-0.792,-0.7942,-0.7994,-0.8025,-0.804,-0.8067,-0.8107,-0.8142,-0.8148,-0.8163,-0.8172,-0.8178,-0.8127,-0.8121,-0.8115,-0.8105,-0.8174,-0.8174,-0.823,-0.823,-0.8231]}]]